TimeCST,TemperatureF,Dew PointF,Humidity,Sea Level PressureIn,VisibilityMPH,Wind Direction,Wind SpeedMPH,Gust SpeedMPH,PrecipitationIn,Events,Conditions,WindDirDegrees,DateUTC
12:53 AM,69.1,64.9,87,29.98,10.0,WSW,4.6,-,N/A,,Clear,240,2012-11-06 06:53:00
1:53 AM,70.0,66.9,90,30.01,10.0,North,9.2,-,N/A,,Clear,10,2012-11-06 07:53:00
2:53 AM,69.8,66.2,88,30.02,10.0,NNE,5.8,-,N/A,,Clear,30,2012-11-06 08:53:00
3:53 AM,68.0,62.1,81,30.02,10.0,NE,8.1,-,N/A,,Clear,40,2012-11-06 09:53:00
4:53 AM,66.9,59.0,76,30.04,10.0,NE,8.1,-,N/A,,Clear,50,2012-11-06 10:53:00
5:53 AM,66.2,57.2,73,30.08,10.0,ENE,11.5,-,N/A,,Partly Cloudy,60,2012-11-06 11:53:00
6:53 AM,64.9,57.0,75,30.09,10.0,NE,9.2,-,N/A,,Clear,50,2012-11-06 12:53:00
7:53 AM,66.9,55.0,66,30.12,10.0,NE,11.5,-,N/A,,Clear,40,2012-11-06 13:53:00
8:53 AM,72.0,54.0,53,30.14,10.0,NE,11.5,-,N/A,,Clear,50,2012-11-06 14:53:00
9:53 AM,75.0,54.0,48,30.14,10.0,ENE,9.2,-,N/A,,Clear,60,2012-11-06 15:53:00
10:53 AM,79.0,48.0,34,30.13,10.0,East,11.5,18.4,N/A,,Clear,80,2012-11-06 16:53:00
11:53 AM,82.0,46.9,29,30.12,10.0,East,9.2,-,N/A,,Clear,90,2012-11-06 17:53:00
12:53 PM,84.0,45.0,25,30.10,10.0,Variable,5.8,20.7,N/A,,Clear,0,2012-11-06 18:53:00
1:53 PM,86.0,42.1,21,30.07,10.0,NE,8.1,-,N/A,,Clear,40,2012-11-06 19:53:00
2:53 PM,84.9,43.0,23,30.06,10.0,East,4.6,-,N/A,,Clear,90,2012-11-06 20:53:00
3:53 PM,84.9,44.1,24,30.06,10.0,Variable,3.5,-,N/A,,Clear,0,2012-11-06 21:53:00
4:53 PM,82.9,44.1,25,30.06,10.0,Calm,Calm,-,N/A,,Clear,0,2012-11-06 22:53:00
5:53 PM,75.9,46.0,35,30.07,10.0,SE,4.6,-,N/A,,Clear,130,2012-11-06 23:53:00
6:53 PM,71.1,46.0,41,30.09,10.0,SE,8.1,-,N/A,,Clear,140,2012-11-07 00:53:00
7:53 PM,64.9,45.0,48,30.10,10.0,SSE,8.1,-,N/A,,Clear,150,2012-11-07 01:53:00
8:53 PM,63.0,44.1,50,30.12,10.0,SSE,4.6,-,N/A,,Clear,150,2012-11-07 02:53:00
9:53 PM,62.1,46.0,56,30.12,10.0,Calm,Calm,-,N/A,,Clear,0,2012-11-07 03:53:00
10:53 PM,62.1,46.9,58,30.12,10.0,WSW,4.6,-,N/A,,Clear,240,2012-11-07 04:53:00
11:53 PM,57.0,45.0,64,30.12,10.0,Calm,Calm,-,N/A,,Clear,0,2012-11-07 05:53:00